TimePST,TemperatureF,Dew PointF,Humidity,Sea Level PressureIn,VisibilityMPH,Wind Direction,Wind SpeedMPH,Gust SpeedMPH,PrecipitationIn,Events,Conditions,WindDirDegrees,DateUTC
12:53 AM,41.0,37.0,86,29.73,10.0,ENE,3.5,-,0.00,,Overcast,70,2013-02-19 08:53:00
1:53 AM,41.0,37.0,86,29.72,10.0,ESE,5.8,-,N/A,,Overcast,120,2013-02-19 09:53:00
2:14 AM,41.0,37.4,87,29.72,10.0,SE,5.8,-,N/A,,Overcast,140,2013-02-19 10:14:00
2:28 AM,41.0,37.4,87,29.71,10.0,SSE,5.8,-,N/A,,Overcast,150,2013-02-19 10:28:00
2:53 AM,39.0,36.0,89,29.71,10.0,SE,4.6,-,N/A,,Mostly Cloudy,140,2013-02-19 10:53:00
3:42 AM,39.2,35.6,87,29.71,10.0,NE,3.5,-,N/A,,Overcast,40,2013-02-19 11:42:00
3:53 AM,39.9,36.0,86,29.71,10.0,East,3.5,-,N/A,,Overcast,90,2013-02-19 11:53:00
4:03 AM,39.2,35.6,87,29.70,10.0,East,3.5,-,N/A,,Overcast,100,2013-02-19 12:03:00
4:53 AM,37.0,34.0,89,29.70,10.0,North,3.5,-,N/A,,Scattered Clouds,360,2013-02-19 12:53:00
5:53 AM,37.9,35.1,89,29.71,10.0,Calm,Calm,-,N/A,,Mostly Cloudy,0,2013-02-19 13:53:00
6:53 AM,37.0,34.0,89,29.71,10.0,NNW,3.5,-,N/A,,Mostly Cloudy,340,2013-02-19 14:53:00
7:53 AM,39.0,36.0,89,29.73,10.0,NNW,4.6,-,N/A,,Partly Cloudy,340,2013-02-19 15:53:00
10:53 AM,46.0,37.9,73,29.78,10.0,NW,5.8,-,N/A,,Overcast,320,2013-02-19 18:53:00
11:53 AM,50.0,36.0,59,29.78,10.0,North,4.6,-,N/A,,Partly Cloudy,350,2013-02-19 19:53:00
12:53 PM,52.0,37.0,57,29.79,10.0,NNW,6.9,-,N/A,,Partly Cloudy,340,2013-02-19 20:53:00
1:53 PM,54.0,35.1,49,29.80,10.0,North,5.8,-,N/A,,Clear,10,2013-02-19 21:53:00
2:53 PM,50.0,35.1,57,29.81,10.0,North,8.1,-,N/A,,Clear,350,2013-02-19 22:53:00
4:53 PM,46.0,37.0,71,29.85,10.0,WSW,9.2,-,N/A,,Clear,240,2013-02-20 00:53:00
5:53 PM,41.0,36.0,82,29.87,10.0,WSW,5.8,-,N/A,,Clear,240,2013-02-20 01:53:00
6:53 PM,42.1,37.9,85,29.90,10.0,West,3.5,-,N/A,,Clear,280,2013-02-20 02:53:00
7:53 PM,41.0,35.1,79,29.93,10.0,WNW,4.6,-,N/A,,Overcast,300,2013-02-20 03:53:00
8:53 PM,41.0,36.0,82,29.96,10.0,WSW,3.5,-,N/A,,Mostly Cloudy,250,2013-02-20 04:53:00
9:53 PM,39.9,36.0,86,29.98,10.0,West,5.8,-,N/A,,Overcast,260,2013-02-20 05:53:00
10:53 PM,39.9,36.0,86,30.01,10.0,WNW,3.5,24.2,N/A,,Overcast,300,2013-02-20 06:53:00
11:53 PM,39.0,35.1,86,30.02,10.0,Calm,Calm,-,N/A,,Overcast,0,2013-02-20 07:53:00